Weather History for Marathon, FL

Change the Weather History Date:

Sunday, April 7, 2013

  Actual Average Record
Temperature  
Mean Temperature 79 °F 77 °F  
Max Temperature 84 °F 82 °F 87 °F (2008)
Min Temperature 74 °F 71 °F 64 °F (2007)
Degree Days  
Heating Degree Days 0 0  
Month to date heating degree days 0 0  
Since 1 July heating degree days 36 81  
Cooling Degree Days 14 12  
Month to date cooling degree days 94 78  
Year to date cooling degree days 882 743  
Growing Degree Days 28 (Base 50)    
Moisture  
Dew Point 63 °F    
Average Humidity 60    
Maximum Humidity 68    
Minimum Humidity 51    
Precipitation  
Precipitation 0.01 in 0.07 in 1.34 in (2008)
Month to date precipitation 1.90 0.53  
Year to date precipitation 5.67 6.74  
Snow  
Snow 0.00 in - - ()
Month to date snowfall 0.0  
Since 1 July snowfall 0.0  
Snow Depth 0.00 in    
Sea Level Pressure  
Sea Level Pressure 30.06 in    
Wind  
Wind Speed 9 mph (East)    
Max Wind Speed 16 mph    
Max Gust Speed 24 mph    
Visibility 10 miles    
Events      
T = Trace of Precipitation, MM = Missing Value Source: NWS Daily Summary

Daily Weather History Graph

Daily Weather History Graph

Search for Another Location

Airport:

Trip Planner

Search our weather history database for the weather conditions in past years. The results will help you decide how hot, cold, wet, or windy it might be!

Date:

Astronomy

Apr. 07, 2013 Rise Set
Actual Time 7:09 AM EDT 7:43 PM EDT
Civil Twilight 6:46 AM EDT 8:06 PM EDT
Nautical Twilight 6:19 AM EDT 8:33 PM EDT
Astronomical Twilight 5:52 AM EDT 9:00 PM EDT
Moon 5:10 AM EDT (4/7) 5:26 PM EDT (4/7)
Length of Visible Light 13h 19m
Length of Day
12h 33m
Waning Crescent, 8% of the Moon is Illuminated
Apr 7
Waning Crescent
Apr 10
New
Apr 18
First Quarter
Apr 25
Full
May 2
Last Quarter

Hourly Weather History & Observations

Time (EDT) Temp. Heat Index Dew Point Humidity Pressure Visibility Wind Dir Wind Speed Gust Speed Precip Events Conditions
12:53 AM 75.9 °F - 62.1 °F 62% 30.06 in 10.0 mi East 9.2 mph - N/A   Partly Cloudy
1:53 AM 75.9 °F - 62.1 °F 62% 30.04 in 10.0 mi East 8.1 mph - N/A   Mostly Cloudy
2:53 AM 75.0 °F - 63.0 °F 66% 30.01 in 10.0 mi ENE 8.1 mph - N/A   Scattered Clouds
3:53 AM 75.9 °F - 63.0 °F 64% 29.99 in 10.0 mi ENE 11.5 mph - N/A   Mostly Cloudy
4:53 AM 75.0 °F - 62.1 °F 64% 30.00 in 10.0 mi East 6.9 mph - N/A   Mostly Cloudy
5:53 AM 75.0 °F - 61.0 °F 62% 30.01 in 10.0 mi East 9.2 mph - N/A   Clear
6:53 AM 73.9 °F - 62.1 °F 66% 30.02 in 10.0 mi East 9.2 mph - N/A   Clear
7:53 AM 75.9 °F - 62.1 °F 62% 30.04 in 10.0 mi East 6.9 mph - N/A   Scattered Clouds
8:53 AM 78.1 °F - 63.0 °F 60% 30.06 in 10.0 mi East 9.2 mph - N/A   Mostly Cloudy
9:53 AM 80.1 °F 81.5 °F 63.0 °F 56% 30.08 in 10.0 mi East 9.2 mph - N/A   Clear
10:53 AM 81.0 °F 82.5 °F 64.0 °F 56% 30.10 in 10.0 mi East 10.4 mph 19.6 mph N/A   Mostly Cloudy
11:18 AM 82.4 °F 83.9 °F 64.4 °F 54% 30.10 in 10.0 mi East 10.4 mph 18.4 mph N/A   Mostly Cloudy
11:25 AM 80.6 °F 82.3 °F 64.4 °F 58% 30.10 in 10.0 mi East 9.2 mph 18.4 mph N/A   Mostly Cloudy
11:53 AM 80.1 °F 81.9 °F 64.9 °F 60% 30.10 in 10.0 mi ENE 10.4 mph - 0.01 in   Mostly Cloudy
12:01 PM 82.4 °F 83.9 °F 64.4 °F 54% 30.10 in 10.0 mi East 13.8 mph - N/A   Mostly Cloudy
12:13 PM 80.6 °F 82.3 °F 64.4 °F 58% 30.10 in 10.0 mi ENE 12.7 mph 20.7 mph N/A   Mostly Cloudy
12:53 PM 79.0 °F - 64.9 °F 62% 30.10 in 10.0 mi East 6.9 mph - N/A   Overcast
1:21 PM 82.4 °F 83.9 °F 64.4 °F 54% 30.09 in 10.0 mi East 9.2 mph - N/A   Overcast
1:40 PM 82.4 °F 83.9 °F 64.4 °F 54% 30.09 in 10.0 mi East 9.2 mph 19.6 mph N/A   Overcast
1:53 PM 82.0 °F 83.4 °F 64.0 °F 54% 30.08 in 10.0 mi East 6.9 mph 17.3 mph N/A   Mostly Cloudy
2:43 PM 80.6 °F 81.5 °F 60.8 °F 51% 30.07 in 10.0 mi East 10.4 mph 24.2 mph N/A   Overcast
2:53 PM 80.1 °F 81.1 °F 61.0 °F 52% 30.07 in 10.0 mi East 12.7 mph 19.6 mph N/A   Overcast
3:53 PM 82.9 °F 84.0 °F 63.0 °F 51% 30.06 in 10.0 mi East 13.8 mph 20.7 mph 0.00 in   Scattered Clouds
4:53 PM 82.0 °F 83.4 °F 64.0 °F 54% 30.05 in 10.0 mi ESE 8.1 mph 17.3 mph N/A   Partly Cloudy
5:03 PM 82.4 °F 83.4 °F 62.6 °F 51% 30.05 in 10.0 mi ESE 9.2 mph 18.4 mph N/A   Partly Cloudy
5:53 PM 79.0 °F - 62.1 °F 56% 30.04 in 10.0 mi ESE 11.5 mph 18.4 mph N/A   Clear
6:53 PM 79.0 °F - 61.0 °F 54% 30.04 in 10.0 mi East 9.2 mph 16.1 mph N/A   Clear
7:53 PM 78.1 °F - 61.0 °F 56% 30.04 in 10.0 mi East 10.4 mph - N/A   Clear
8:53 PM 77.0 °F - 62.1 °F 60% 30.05 in 10.0 mi East 8.1 mph - N/A   Clear
9:53 PM 77.0 °F - 63.0 °F 62% 30.08 in 10.0 mi East 8.1 mph 16.1 mph N/A   Clear
10:53 PM 77.0 °F - 63.0 °F 62% 30.08 in 10.0 mi East 9.2 mph - N/A   Clear
11:53 PM 77.0 °F - 63.0 °F 62% 30.09 in 10.0 mi East 9.2 mph - N/A   Partly Cloudy